Home > Weather > Dublin > Past weeks

Flag for Ireland Past Weather in Dublin, Ireland — Yesterday and Last 2 Weeks

Now
59 °F

Broken clouds.


Feels Like: 58 °F
Forecast: 53 / 66 °F
Wind: 8 mph from West

Location: Dublin Airport

Current Time: Jul 25, 2016 at 1:02:02 PM

Latest Report: Jul 25, 2016 at 12:00 PM


Visibility: N/A

Pressure: 30.07 "Hg

Humidity: 77%

Dew Point: 52 °F

Location of DublinLocation

Past Weather in Dublin — Graph

°F

Dublin Temperature Yesterday

Maximum temperature yesterday: 70 °F (at 4:30 PM)
Minimum temperature yesterday: 55 °F (at 5:00 AM)
Average temperature yesterday: 61 °F

High & Low Weather Summary for the Past Weeks

 TemperatureHumidityPressure
High79 °F (Jul 18, 5:00 PM)100% (Jul 12, 4:30 AM)30.30 "Hg (Jul 12, 4:30 AM)
Low46 °F (Jul 12, 2:30 AM)50% (Jul 17, 1:30 PM)29.42 "Hg (Jul 10, 6:30 PM)
Average62 °F77%30.00 "Hg
* Reported Jul 10 11:00 AM — Jul 25 11:30 AM, Dublin, Weather by CustomWeather, © 2016

Note: Actual official high and low records may vary slightly from our data, if they occured in-between our weather recording intervals... More about our weather records

Advertising

Dublin Weather History for the Previous 24 Hours

Scroll right to see more
 ConditionsComfort  
Time TempWeatherWind HumidityBarometerVisibility
11:30 AM
Mon, Jul 25
57 °FBroken clouds.8 mph82%30.07 "HgN/A
11:00 AM59 °FScattered showers. Partly sunny.14 mph72%30.07 "HgN/A
10:30 AM61 °FPartly sunny.15 mph68%30.04 "HgN/A
10:00 AM59 °FPartly sunny.16 mph72%30.04 "HgN/A
9:30 AM59 °FBroken clouds.15 mph77%30.04 "HgN/A
9:00 AM59 °FBroken clouds.16 mph77%30.04 "HgN/A
8:30 AM57 °FBroken clouds.18 mph82%30.04 "HgN/A
8:00 AM57 °FPartly sunny.20 mph77%30.04 "HgN/A
7:30 AM57 °FBroken clouds.17 mph82%30.04 "HgN/A
7:00 AM55 °FBroken clouds.17 mph82%30.04 "HgN/A
6:30 AM55 °FBroken clouds.17 mph82%30.01 "HgN/A
6:00 AM55 °FPassing clouds.17 mph82%30.01 "HgN/A
5:30 AM54 °FPartly cloudy.15 mph88%30.01 "HgN/A
5:00 AM54 °FPassing clouds.13 mph88%30.01 "HgN/A
4:30 AM54 °FPassing clouds.14 mph88%30.04 "HgN/A
4:00 AM54 °FPassing clouds.13 mph88%30.04 "HgN/A
3:30 AM54 °FPassing clouds.13 mph88%30.04 "HgN/A
3:00 AM54 °FPassing clouds.14 mph82%30.04 "HgN/A
2:30 AM54 °FPassing clouds.14 mph88%30.04 "HgN/A
2:00 AM54 °FPassing clouds.14 mph88%30.01 "HgN/A
1:30 AM54 °FPassing clouds.17 mph88%30.01 "HgN/A
1:00 AM55 °FPassing clouds.18 mph88%30.01 "HgN/A
12:30 AM55 °FPassing clouds.15 mph88%30.01 "HgN/A
12:00 AM57 °FPassing clouds.15 mph82%30.01 "HgN/A
11:30 PM
Sun, Jul 24
57 °FPassing clouds.14 mph82%30.01 "HgN/A
11:00 PM57 °FPassing clouds.17 mph82%30.01 "HgN/A
10:30 PM59 °FScattered clouds.18 mph77%30.01 "HgN/A
10:00 PM59 °FScattered clouds.17 mph77%29.98 "HgN/A
9:30 PM59 °FScattered clouds.17 mph77%29.98 "HgN/A
9:00 PM59 °FPassing clouds.21 mph77%29.98 "HgN/A
8:30 PM61 °FPassing clouds.20 mph72%29.95 "HgN/A
8:00 PM63 °FPassing clouds.18 mph68%29.95 "HgN/A
7:30 PM63 °FScattered showers. Passing clouds.22 mph73%29.95 "HgN/A
7:00 PM64 °FScattered showers. Passing clouds.20 mph68%29.95 "HgN/A
6:30 PM66 °FScattered showers. Scattered clouds.17 mph64%29.92 "HgN/A
6:00 PM64 °FScattered showers. Partly sunny.18 mph64%29.92 "HgN/A
5:30 PM66 °FScattered showers. Partly sunny.22 mph64%29.92 "HgN/A
5:00 PM68 °FScattered showers. Passing clouds.22 mph60%29.92 "HgN/A
4:30 PM70 °FPassing clouds.22 mph60%29.92 "HgN/A
4:00 PM68 °FScattered showers. Scattered clouds.21 mph60%29.92 "HgN/A
3:30 PM68 °FScattered showers. Scattered clouds.16 mph69%29.92 "HgN/A
3:00 PM68 °FScattered showers. Scattered clouds.15 mph69%29.92 "HgN/A
2:30 PM66 °FScattered clouds.12 mph73%29.92 "HgN/A
2:00 PM63 °FDrizzle. Partly sunny.9 mph88%29.95 "Hg5 mi
1:30 PM63 °FPartly sunny.9 mph83%29.95 "HgN/A
1:00 PM63 °FPartly sunny.6 mph83%29.95 "HgN/A
Weather by CustomWeather, © 2016

See weather overviewHow to use our weather pages